Regional Weather Roundup
Issued by NWS

Home | Current Version | Previous Version | Text Only | Print | Product List | Glossary On
Versions: 1 2 3 4 5 6 7 8 9 10 11 12 13 14 15 16 17 18 19 20 21 22 23 24 25 26 27 28 29 30 31 32 33 34 35 36 37 38 39 40 41 42 43 44 45 46 47 48 49 50
000
ASUS43 KOAX 132110
RWRNE

WEATHER ROUNDUP FOR NEBRASKA
NATIONAL WEATHER SERVICE OMAHA NE
400 PM CDT SUN JUL 13 2014

NOTES: SATELLITE DATA IS BEING USED TO AUGMENT CLOUD COVER ABOVE
       12000 FEET.
       "FAIR" INDICATES FEW OR NO CLOUDS BELOW 12,000 FEET WITH NO
       SIGNIFICANT WEATHER AND/OR OBSTRUCTIONS TO VISIBILITY.

  * THESE STATIONS DO NOT REPORT WEATHER SUCH AS RAIN...SNOW OR FOG.

NEZ001>004-019>022-054>056-132200-
NEBRASKA PANHANDLE

CITY           SKY/WX    TMP DP  RH WIND       PRES   REMARKS
SCOTTSBLUFF    CLOUDY    83  59  44 NE5       30.19F
ALLIANCE       MOSUNNY   83  47  28 SW3       30.17F
CHADRON        MOSUNNY   91  49  23 MISG      30.12F
KIMBALL        RAIN      69  56  62 N22G32    30.25R
SIDNEY         PTSUNNY   78  57  48 S15       30.21F
$$

NEZ057>060-069>072-079>082-132200-
SOUTHWEST NEBRASKA

CITY           SKY/WX    TMP DP  RH WIND       PRES   REMARKS
NORTH PLATTE   MOSUNNY   88  54  31 N7        30.11F
IMPERIAL       LGT RAIN  72  62  71 SW10      30.17F
LEXINGTON      SUNNY     89  60  37 W5        30.11F
MCCOOK         MOSUNNY   89  56  32 CALM      30.11F
OGALLALA       SUNNY     86  50  28 NE8       30.14F
$$

NEZ005>010-023>029-035>040-094-132200-
NORTH CENTRAL NEBRASKA

CITY           SKY/WX    TMP DP  RH WIND       PRES   REMARKS
VALENTINE      SUNNY     85  52  32 NW9       30.11F
AINSWORTH      SUNNY     83  48  29 NW8       30.11F
BROKEN BOW     PTSUNNY   83  62  49 NW8       30.09F
O`NEILL        PTSUNNY   84  51  31 W9        30.07F
ORD            SUNNY     85  62  46 NW15      30.06S
THEDFORD       MOSUNNY   87  54  32 NW8       30.13F
$$

NEZ041-046>049-061>064-073>077-083>087-132200-
SOUTH CENTRAL NEBRASKA

CITY           SKY/WX    TMP DP  RH WIND       PRES   REMARKS
GRAND ISLAND   MOSUNNY   89  62  40 W12       30.06F
AURORA         SUNNY     86  64  48 W9        30.05F
HASTINGS       SUNNY     86  59  39 NW9       30.07F
HEBRON         MOSUNNY   86  65  48 NW5       30.05F
HOLDREGE       SUNNY     85  56  36 CALM      30.10F
KEARNEY *      SUNNY     88  57  35 N10       30.09F
YORK           MOSUNNY   86  64  48 W8        30.05F
$$

NEZ011>018-030>034-042>045-132200-
NORTHEAST NEBRASKA

CITY           SKY/WX    TMP DP  RH WIND       PRES   REMARKS
NORFOLK        PTSUNNY   83  68  60 NE3       30.03S
ALBION         MOSUNNY   85  60  43 NW13      30.05S
BLAIR          MOSUNNY   85  54  34 SW5       30.00F
FREMONT        PTSUNNY   87  65  46 NW3       30.01F
TEKAMAH        CLOUDY    84  66  54 N13       30.00S
WAYNE          PTSUNNY   83  64  51 NW6       30.03S
$$

NEZ050>053-065>068-078-088>093-132200-
SOUTHEAST NEBRASKA

CITY           SKY/WX    TMP DP  RH WIND       PRES   REMARKS
LINCOLN        MOSUNNY   92  59  33 VRB7      30.02F HX  91
OMAHA EPPLEY   PTSUNNY   87  64  46 NW6       29.99F
BEATRICE       SUNNY     84  64  51 CALM      30.03S
FALLS CITY     PTSUNNY   86  70  58 NW7       30.00F HX  90
NEBRASKA CITY  SUNNY     85  65  52 CALM      30.01S
PLATTSMOUTH    MOSUNNY   87  61  41 W6        30.00F
$$

NEZ044-045-051>053-067-132200-
OMAHA AREA

CITY           SKY/WX    TMP DP  RH WIND       PRES   REMARKS
OMAHA EPPLEY   PTSUNNY   87  64  46 NW6       29.99F
BLAIR          MOSUNNY   85  54  34 SW5       30.00F
FREMONT        PTSUNNY   87  65  46 NW3       30.01F
MILLARD        PTSUNNY   85  65  51 NW6       30.00S
OFFUTT AFB     MOSUNNY   89  67  47 NW8G16    29.99F HX  92
PLATTSMOUTH    MOSUNNY   87  61  41 W6        30.00F
WAHOO          HVY RAIN  79  66  66 NW17G25   30.03R
$$



USA.gov is the U.S. government's official web portal to all federal, state and local government web resources and services.